EA3ANS-1 Weather Reports


Display with metric or nautical units.
time (UTC)temp
F
wind
direction
speed
MPH
gust
MPH
rain 1hr
in
rain 24hr
in
rain mn
in
humidity
%
barometer
mb
20220706164101 83 233 4.0 6.0 0.00 0.02 0.08 43
20220706163100 83 219 6.0 5.0 0.00 0.02 0.08 44
20220706162102 84 221 6.0 5.0 0.00 0.02 0.08 45
20220706161104 84 203 5.0 5.0 0.00 0.02 0.08 43
20220706160102 84 222 5.0 8.0 0.00 0.02 0.08 41
20220706155105 85 228 9.0 11.0 0.00 0.02 0.08 39
20220706154107 85 221 6.0 5.0 0.00 0.02 0.08 34
20220706153110 86 228 5.0 8.0 0.00 0.02 0.08 32
20220706151115 87 224 10.0 11.0 0.00 0.02 0.08 31
20220706150116 89 190 5.0 8.0 0.00 0.02 0.08 28
20220706145109 89 38 1.0 1.0 0.00 0.02 0.08 26
20220706144111 90 233 2.0 1.0 0.00 0.02 0.08 27
20220706143114 89 222 3.0 2.0 0.00 0.02 0.08 29
20220706142117 90 155 5.0 7.0 0.00 0.02 0.08 29
20220706141119 88 35 0.0 0.0 0.00 0.02 0.08 32
20220706140122 86 300 3.0 4.0 0.00 0.02 0.08 35
20220706135124 84 65 4.0 3.0 0.00 0.02 0.08 37
20220706134121 83 305 10.0 7.0 0.00 0.02 0.08 39
20220706133121 82 20 5.0 4.0 0.00 0.02 0.08 43
20220706132125 81 359 7.0 8.0 0.00 0.02 0.08 44
20220706131122 80 315 7.0 8.0 0.00 0.02 0.08 47
20220706130125 80 308 11.0 8.0 0.00 0.02 0.08 49
20220706125127 80 20 10.0 10.0 0.00 0.02 0.08 45
20220706124130 80 357 15.0 10.0 0.01 0.02 0.08 46
20220706123128 80 345 11.0 11.0 0.01 0.02 0.08 47
20220706122130 79 346 14.0 17.0 0.01 0.02 0.08 52
20220706121133 79 24 12.0 17.0 0.01 0.02 0.08 53
20220706120136 79 346 9.0 9.0 0.01 0.02 0.08 55
20220706115141 79 309 10.0 15.0 0.01 0.02 0.08 57
20220706114141 80 11 12.0 15.0 0.01 0.02 0.08 55
20220706113143 80 38 8.0 6.0 0.01 0.02 0.07 53
20220706112142 79 0 5.0 8.0 0.01 0.02 0.07 56
20220706111138 79 315 11.0 5.0 0.01 0.02 0.07 57
20220706110140 80 262 7.0 7.0 0.01 0.02 0.07 58
20220706105141 80 300 1.0 2.0 0.01 0.02 0.07 60
20220706104143 78 14 3.0 2.0 0.01 0.02 0.07 63
20220706103146 78 329 5.0 3.0 0.01 0.02 0.07 61
20220706102149 78 271 3.0 3.0 0.01 0.02 0.06 59
20220706101142 77 7 4.0 4.0 0.01 0.02 0.06 59
20220706100145 77 0 9.0 11.0 0.01 0.02 0.06 60
20220706095147 77 3 10.0 6.0 0.01 0.02 0.06 60
20220706094147 77 359 10.0 11.0 0.00 0.02 0.06 62
20220706093148 76 329 7.0 11.0 0.00 0.02 0.06 63
20220706092151 77 45 7.0 2.0 0.00 0.02 0.06 61
20220706091152 77 318 4.0 2.0 0.00 0.02 0.06 57
20220706090147 79 51 6.0 3.0 0.00 0.02 0.06 54
20220706084141 79 11 6.0 4.0 0.02 0.02 0.05 49
20220706083138 78 46 8.0 4.0 0.02 0.02 0.05 52
20220706082144 78 329 5.0 6.0 0.02 0.02 0.05 58
20220706081140 76 276 6.0 5.0 0.02 0.02 0.05 63
20220706080143 75 4 4.0 3.0 0.02 0.02 0.05 64
20220706074139 74 338 11.0 13.0 0.00 0.02 0.05 68
20220706073139 75 322 8.0 8.0 0.00 0.02 0.03 66
20220706072139 75 21 5.0 10.0 0.00 0.02 0.03 62
20220706071136 75 15 8.0 8.0 0.00 0.02 0.03 62
20220706070138 75 312 8.0 7.0 0.00 0.02 0.03 62
20220706064131 74 11 8.0 13.0 0.00 0.02 0.03 67
20220706063132 73 6 4.0 4.0 0.00 0.02 0.03 68
20220706061137 72 6 7.0 10.0 0.00 0.02 0.03 72
20220706060140 71 316 8.0 3.0 0.00 0.02 0.03 75
20220706055142 71 336 2.0 4.0 0.00 0.02 0.03 78
20220706054145 70 165 6.0 2.0 0.01 0.02 0.03 80
20220706053143 70 21 6.0 3.0 0.01 0.02 0.03 83
20220706052146 70 357 5.0 6.0 0.01 0.02 0.03 86
20220706051148 70 138 3.0 2.0 0.01 0.02 0.03 82
20220706050148 71 188 4.0 6.0 0.01 0.02 0.03 81
20220706045150 70 90 0.0 0.0 0.01 0.02 0.03 82
20220706044153 70 32 0.0 3.0 0.02 0.02 0.03 81
20220706043155 71 221 3.0 1.0 0.02 0.02 0.03 80
20220706042154 71 160 0.0 2.0 0.02 0.02 0.03 79
20220706041156 71 138 3.0 2.0 0.02 0.02 0.02 79
20220706034203 72 68 4.0 5.0 0.00 0.02 0.01 74
20220706032203 72 111 3.0 1.0 0.00 0.02 0.00 70
20220706025204 73 0 3.0 4.0 0.00 0.02 0.00 66
20220706024201 74 113 4.0 5.0 0.00 0.02 0.00 61
20220706022203 72 207 7.0 6.0 0.00 0.02 0.00 66
20220706021206 72 221 5.0 6.0 0.00 0.02 0.00 67
20220706020203 72 153 0.0 0.0 0.00 0.02 0.00 67
20220706015204 73 127 0.0 0.0 0.00 0.02 0.00 66
20220706014208 73 155 0.0 0.0 0.00 0.02 0.00 65
20220706013209 73 44 0.0 0.0 0.00 0.02 0.00 64
20220706012213 73 44 0.0 0.0 0.00 0.02 0.00 65
20220706011216 73 39 3.0 2.0 0.00 0.02 0.00 65
20220706010218 73 270 0.0 0.0 0.00 0.02 0.00 63
20220706004209 74 270 0.0 0.0 0.00 0.02 0.00 62
20220706003214 74 277 1.0 2.0 0.00 0.02 0.00 62
20220706002210 74 332 2.0 1.0 0.00 0.02 0.00 62
20220706001210 75 121 2.0 2.0 0.00 0.02 0.00 60
20220706000213 75 166 2.0 4.0 0.00 0.02 0.00 59
20220705235211 76 225 1.0 4.0 0.00 0.02 0.00 57
20220705234210 77 138 6.0 6.0 0.00 0.02 0.00 54
20220705233210 77 35 5.0 3.0 0.00 0.02 0.00 51
20220705232211 78 159 3.0 8.0 0.00 0.02 0.00 52
20220705231209 79 174 3.0 2.0 0.00 0.02 0.00 48
20220705230213 78 319 7.0 9.0 0.00 0.02 0.00 48
20220705225216 78 319 8.0 13.0 0.00 0.02 0.00 48
20220705224213 78 11 7.0 6.0 0.02 0.02 0.00 49
20220705223212 78 86 6.0 9.0 0.02 0.02 0.00 49
20220705222215 78 357 7.0 7.0 0.02 0.02 0.00 50
20220705221214 77 338 9.0 20.0 0.02 0.02 0.00 51
20220705220216 75 359 9.0 4.0 0.02 0.02 0.00 56
20220705215216 74 335 8.0 6.0 0.02 0.02 0.00 69
20220705213221 74 124 9.0 7.0 0.00 0.00 0.02 68
20220705212220 74 58 1.0 0.0 0.00 0.00 0.02 69
20220705211221 74 0 7.0 6.0 0.00 0.00 0.02 70
20220705210224 75 28 6.0 7.0 0.00 0.00 0.01 65
20220705205226 76 155 5.0 4.0 0.00 0.00 0.01 61
20220705204229 77 352 7.0 7.0 0.00 0.00 0.00 59
20220705203230 77 359 4.0 5.0 0.00 0.00 0.00 59
20220705202233 78 288 4.0 3.0 0.00 0.00 0.00 55
20220705201226 78 166 6.0 4.0 0.00 0.00 0.00 53
20220705200233 79 245 11.0 11.0 0.00 0.00 0.00 52
20220705195231 80 231 10.0 9.0 0.00 0.00 0.00 49
20220705194234 80 221 11.0 15.0 0.00 0.00 0.00 45
20220705193236 80 184 8.0 8.0 0.00 0.00 0.00 43
20220705192238 80 197 7.0 6.0 0.00 0.00 0.00 45
20220705191241 80 159 2.0 3.0 0.00 0.00 0.00 46
20220705190237 80 139 7.0 3.0 0.00 0.00 0.00 48
20220705185240 80 120 6.0 12.0 0.00 0.00 0.00 48
20220705184242 80 145 7.0 8.0 0.00 0.00 0.00 44
20220705181248 82 96 4.0 8.0 0.00 0.00 0.00 41
20220705180250 83 93 6.0 8.0 0.00 0.00 0.00 40
20220705175248 83 141 4.0 5.0 0.00 0.00 0.00 39
20220705174248 83 66 1.0 0.0 0.00 0.00 0.00 39
20220705173248 82 347 5.0 2.0 0.00 0.00 0.00 41
20220705172252 82 121 9.0 8.0 0.00 0.00 0.00 44
20220705171248 83 128 5.0 4.0 0.00 0.00 0.00 42
20220705170249 84 141 8.0 7.0 0.00 0.00 0.00 41
20220705165251 84 177 6.0 9.0 0.00 0.00 0.00 41